Location: Milton Keynes
(52.0316°N, 0.7531°W)
Time: 11:28:30
(UTC+01:00)

Tiangong - Visible Passes

Search period start: 21 May 2024 00:00
Search period end: 31 May 2024 00:00
Orbit: 372 x 375 km, 41.5° (Epoch: 20 May)

Date Brightness Start Highest point End Pass type
(mag) Time Alt. Az. Time Alt. Az. Time Alt. Az.
28 May 0.1 03:30:55 11° S 03:31:30 11° S 03:32:28 10° SSE visible
29 May 0.0 04:02:03 10° SSW 04:03:22 12° S 04:04:41 10° SSE visible
30 May 0.2 03:00:12 11° SSE 03:00:12 11° SSE 03:00:40 10° SSE visible
